| time (UTC) | temp F | wind direction | speed MPH | gust MPH | rain 1hr in | rain 24hr in | rain mn in | humidity % | barometer mb |
| 20260502220018 | 43 | 338 | 9.0 | 15.0 | 0.00 | 0.18 | 0.00 | 62 | 1013.9 |
| 20260502214604 | 44 | 355 | 11.0 | 17.0 | 0.00 | 0.18 | 0.00 | 61 | 1013.9 |
| 20260502213042 | 44 | 331 | 7.0 | 12.0 | 0.00 | 0.18 | 0.00 | 61 | 1013.8 |
| 20260502211518 | 44 | 358 | 10.0 | 17.0 | 0.00 | 0.18 | 0.00 | 60 | 1013.7 |
| 20260502210034 | 44 | 340 | 7.0 | 16.0 | 0.00 | 0.18 | 0.00 | 59 | 1013.7 |
| 20260502204552 | 44 | 347 | 5.0 | 11.0 | 0.00 | 0.18 | 0.00 | 60 | 1013.7 |
| 20260502203008 | 44 | 1 | 7.0 | 12.0 | 0.00 | 0.18 | 0.00 | 58 | 1013.7 |
| 20260502201534 | 44 | 293 | 5.0 | 13.0 | 0.00 | 0.18 | 0.00 | 59 | 1013.7 |
| 20260502200052 | 45 | 341 | 5.0 | 10.0 | 0.00 | 0.18 | 0.00 | 60 | 1013.8 |
| 20260502194523 | 44 | 293 | 5.0 | 13.0 | 0.00 | 0.18 | 0.00 | 60 | 1013.9 |
| 20260502193039 | 44 | 296 | 7.0 | 19.0 | 0.00 | 0.18 | 0.00 | 60 | 1014.2 |
| 20260502191551 | 45 | 46 | 2.0 | 10.0 | 0.00 | 0.18 | 0.00 | 60 | 1014.3 |
| 20260502190018 | 44 | 291 | 6.0 | 13.0 | 0.00 | 0.18 | 0.00 | 60 | 1014.4 |
| 20260502184610 | 45 | 252 | 5.0 | 8.0 | 0.00 | 0.18 | 0.00 | 61 | 1014.3 |
| 20260502183045 | 45 | 348 | 9.0 | 13.0 | 0.00 | 0.18 | 0.00 | 59 | 1014.4 |
| 20260502181532 | 44 | 344 | 6.0 | 12.0 | 0.00 | 0.18 | 0.00 | 59 | 1014.4 |
| 20260502163054 | 47 | 258 | 7.0 | 17.0 | 0.00 | 0.18 | 0.00 | 60 | 1014.5 |
| 20260502161514 | 46 | 264 | 6.0 | 22.0 | 0.00 | 0.18 | 0.00 | 58 | 1014.6 |
| 20260502151508 | 43 | 344 | 10.0 | 23.0 | 0.00 | 0.18 | 0.00 | 68 | 1014.6 |
| 20260502123036 | 36 | 314 | 9.0 | 17.0 | 0.00 | 0.18 | 0.00 | 82 | 1015.0 |
| 20260502121602 | 37 | 343 | 8.0 | 20.0 | 0.00 | 0.18 | 0.00 | 82 | 1014.9 |
| 20260502114558 | 37 | 350 | 8.0 | 16.0 | 0.00 | 0.18 | 0.00 | 82 | 1015.2 |
| 20260502113024 | 37 | 269 | 7.0 | 16.0 | 0.00 | 0.18 | 0.00 | 82 | 1015.2 |
| 20260502111548 | 37 | 288 | 6.0 | 15.0 | 0.00 | 0.18 | 0.00 | 83 | 1015.0 |
| 20260502110004 | 36 | 308 | 8.0 | 22.0 | 0.00 | 0.18 | 0.00 | 84 | 1014.9 |
| 20260502104537 | 37 | 339 | 4.0 | 12.0 | 0.00 | 0.18 | 0.00 | 83 | 1014.6 |
| 20260502103057 | 37 | 329 | 7.0 | 11.0 | 0.00 | 0.18 | 0.00 | 84 | 1014.4 |
| 20260502101512 | 37 | 1 | 2.0 | 7.0 | 0.00 | 0.18 | 0.00 | 84 | 1014.3 |
| 20260502100112 | 37 | 340 | 4.0 | 7.0 | 0.00 | 0.18 | 0.00 | 84 | 1014.3 |
| 20260502091532 | 38 | 257 | 2.0 | 10.0 | 0.00 | 0.18 | 0.00 | 84 | 1013.9 |
| 20260502071504 | 39 | 9 | 8.0 | 13.0 | 0.00 | 0.18 | 0.00 | 84 | 1013.3 |
| 20260502070055 | 39 | 347 | 4.0 | 12.0 | 0.00 | 0.18 | 0.00 | 84 | 1013.3 |
| 20260502064543 | 38 | 324 | 3.0 | 8.0 | 0.00 | 0.18 | 0.00 | 84 | 1013.5 |
| 20260502063013 | 38 | 305 | 1.0 | 7.0 | 0.00 | 0.18 | 0.00 | 84 | 1013.6 |
| 20260502061542 | 38 | 338 | 4.0 | 9.0 | 0.00 | 0.18 | 0.00 | 84 | 1013.6 |
| 20260502060059 | 39 | 290 | 3.0 | 11.0 | 0.00 | 0.18 | 0.00 | 84 | 1013.6 |
| 20260502054527 | 39 | 338 | 5.0 | 11.0 | 0.00 | 0.18 | 0.00 | 84 | 1013.4 |
| 20260502053108 | 38 | 241 | 4.0 | 7.0 | 0.00 | 0.18 | 0.00 | 84 | 1013.4 |
| 20260502051525 | 38 | 343 | 3.0 | 8.0 | 0.00 | 0.18 | 0.00 | 84 | 1013.4 |
| 20260502050043 | 38 | 186 | 2.0 | 8.0 | 0.00 | 0.19 | 0.00 | 83 | 1014.0 |
| 20260502044501 | 38 | 1 | 7.0 | 15.0 | 0.01 | 0.19 | 0.00 | 83 | 1013.3 |
| 20260502043033 | 39 | 307 | 7.0 | 14.0 | 0.01 | 0.19 | 0.00 | 84 | 1013.6 |
| 20260502041502 | 39 | 319 | 7.0 | 18.0 | 0.01 | 0.19 | 0.00 | 84 | 1013.5 |
| 20260502040043 | 40 | 329 | 6.0 | 17.0 | 0.01 | 0.19 | 0.19 | 84 | 1013.3 |
| 20260502034547 | 40 | 326 | 5.0 | 13.0 | 0.00 | 0.18 | 0.18 | 84 | 1013.2 |
| 20260502033004 | 40 | 331 | 3.0 | 12.0 | 0.01 | 0.18 | 0.18 | 84 | 1013.1 |
| 20260502031529 | 40 | 223 | 7.0 | 14.0 | 0.02 | 0.18 | 0.18 | 84 | 1013.1 |
| 20260502030056 | 41 | 349 | 6.0 | 13.0 | 0.02 | 0.18 | 0.18 | 84 | 1013.0 |
| 20260502024540 | 41 | 314 | 3.0 | 14.0 | 0.03 | 0.18 | 0.18 | 84 | 1013.1 |
| 20260502023009 | 42 | 286 | 7.0 | 14.0 | 0.04 | 0.17 | 0.17 | 84 | 1013.0 |
| 20260502021552 | 42 | 308 | 2.0 | 6.0 | 0.03 | 0.16 | 0.16 | 84 | 1013.0 |
| 20260502020016 | 42 | 206 | 3.0 | 9.0 | 0.02 | 0.15 | 0.15 | 84 | 1013.0 |
| 20260502014540 | 42 | 197 | 2.0 | 7.0 | 0.03 | 0.15 | 0.15 | 84 | 1012.9 |
| 20260502013058 | 42 | 199 | 4.0 | 7.0 | 0.01 | 0.13 | 0.13 | 84 | 1012.8 |
| 20260502011525 | 43 | 178 | 2.0 | 5.0 | 0.02 | 0.13 | 0.13 | 84 | 1012.8 |
| 20260502010048 | 42 | 178 | 3.0 | 6.0 | 0.02 | 0.13 | 0.13 | 84 | 1012.7 |
| 20260502004518 | 43 | 202 | 3.0 | 9.0 | 0.02 | 0.12 | 0.12 | 83 | 1012.7 |
| 20260502003040 | 43 | 167 | 3.0 | 7.0 | 0.04 | 0.12 | 0.12 | 83 | 1012.5 |
| 20260502001554 | 43 | 171 | 3.0 | 6.0 | 0.04 | 0.11 | 0.11 | 83 | 1012.4 |
| 20260502000032 | 43 | 152 | 2.0 | 4.0 | 0.06 | 0.11 | 0.11 | 83 | 1012.3 |
| 20260501234512 | 44 | 152 | 1.0 | 3.0 | 0.07 | 0.10 | 0.10 | 83 | 1012.3 |
| 20260501233058 | 44 | 195 | 1.0 | 3.0 | 0.07 | 0.08 | 0.08 | 83 | 1012.4 |
| 20260501231538 | 44 | 124 | 1.0 | 4.0 | 0.06 | 0.07 | 0.07 | 82 | 1012.3 |
| 20260501230058 | 44 | 145 | 3.0 | 5.0 | 0.04 | 0.05 | 0.05 | 81 | 1012.3 |
| 20260501224523 | 45 | 331 | 1.0 | 5.0 | 0.02 | 0.03 | 0.03 | 79 | 1012.2 |
| 20260501223050 | 46 | 310 | 4.0 | 8.0 | 0.00 | 0.01 | 0.01 | 77 | 1012.2 |
| 20260501221606 | 48 | 290 | 4.0 | 7.0 | 0.00 | 0.01 | 0.01 | 74 | 1012.1 |